Regional Weather Roundup
Issued by NWS

Home | Current Version | Previous Version | Text Only | Print | Product List | Glossary On
Versions: 1 2 3 4 5 6 7 8 9 10 11 12 13 14 15 16 17 18 19 20 21 22 23 24 25 26 27 28 29 30 31 32 33 34 35 36 37 38 39 40 41 42 43 44 45 46 47 48 49 50
000
ASUS43 KDTX 261910
RWRMI
MICHIGAN HOURLY REGIONAL WEATHER ROUNDUP
NATIONAL WEATHER SERVICE DETROIT/PONTIAC MI
300 PM EDT SUN MAR 26 2017

NOTE: "FAIR" INDICATES FEW OR NO CLOUDS BELOW 12,000 FEET WITH NO
SIGNIFICANT WEATHER AND/OR OBSTRUCTION TO VISIBILITY.

MIZ047>049-052>055-059>063-066>070-074>076-081>083-262000-
SOUTHEAST LOWER MICHIGAN

CITY           SKY/WX    TMP DP  RH WIND       PRES   REMARKS
ADRIAN         CLOUDY    47  46  97 SE5       29.92F FOG
ALMA           LGT RAIN  45  44  98 E7        29.91F
ANN ARBOR      CLOUDY    47  47 100 SE6       29.93S FOG
BAD AXE        LGT SNOW  44  41  92 CALM      29.94F
CARO           LGT RAIN  46  45  97 E6        29.92F
DETROIT CITY   LGT RAIN  46  45  96 SE7       29.94F FOG
DETROIT        CLOUDY    49  47  93 E7        29.94F FOG
FLINT          LGT RAIN  47  46  97 SE9       29.91F FOG
GROSSE ILE     CLOUDY    42  41  96 CALM      29.93F FOG
HILLSDALE      LGT RAIN  46  46 100 S7        29.89F
HOWELL         RAIN      48  46  92 S5        29.91S

CITY           SKY/WX    TMP DP  RH WIND       PRES   REMARKS
JACKSON        CLOUDY    51  48  89 SE9       29.90F
LAMBERTVILLE   CLOUDY    50  46  85 E3        29.92F
LANSING        CLOUDY    51  47  86 S8        29.90F
LAPEER         DRIZZLE   47  46  97 SE6       29.92F
MASON          CLOUDY    49  48  97 SE5       29.90F
MONROE         CLOUDY    45  44  96 E9G17     29.92F
MT. CLEMENS    LGT RAIN  46  46 100 E7        29.93F FOG
PONTIAC        LGT RAIN  46  43  89 E12       29.91F FOG
PORT HOPE        N/A     35  34  96 E3        29.96F
PORT HURON     RAIN      48  46  93 SE3       29.96F
TRI CITIES     LGT RAIN  42  41  96 NE12      29.90F VSB 1
MIDLAND        LGT RAIN  40  39  95 NE7       29.90F
TROY           LGT RAIN  46  44  91 E6        29.95F
SAGINAW HB     LGT RAIN  46  43  87 E10       29.90F
$$
MIZ043>046-050>051-056>058-064>065-071>073-077>080-262000-
SOUTHWEST LOWER MICHIGAN

CITY           SKY/WX    TMP DP  RH WIND       PRES   REMARKS
BATTLE CREEK   CLOUDY    53  51  93 S8        29.88F
BENTON HARBOR  RAIN      56  53  90 SE6       29.84F FOG
BIG RAPIDS     LGT SNOW  42  40  93 SE8       29.89F
COLDWATER      CLOUDY    53  51  90 S10       29.88F
FREMONT        DRIZZLE   44  44  99 E7        29.87F
HOLLAND        LGT RAIN  53  51  93 SE7       29.86F
GRAND RAPIDS   CLOUDY    49  48  97 E7        29.87F FOG
IONIA          CLOUDY    48  46  95 E6        29.88F
KALAMAZOO      CLOUDY    55  50  83 S6        29.87F
LUDINGTON      HVY RAIN  46  46 100 SE7       29.86F
MARSHALL       CLOUDY    53  51  94 SE7       29.88F
MOUNT PLEASANT LGT RAIN  41  40  95 NE5       29.91F
MUSKEGON       LGT RAIN  48  46  93 E12       29.86F
SOUTH HAVEN    CLOUDY    55  54  94 S7        29.85S
$$
MIZ016>042-262000-
NORTHERN LOWER MICHIGAN

CITY           SKY/WX    TMP DP  RH WIND       PRES   REMARKS
ALPENA         LGT RAIN  37  35  92 E9        29.98F WCI  30
BEAVER ISLAND  CLOUDY    35  35  99 E9        29.92F FOG     WCI  28
BELLAIRE       CLOUDY    44  40  85 NE5       29.89F
CADILLAC       DRIZZLE   41  40  97 SE8       29.87F
CHARLEVOIX     CLOUDY    39  39 100 E8        29.93F FOG     WCI  34
FRANKFORT      CLOUDY    47  43  87 E3        29.87F
GAYLORD        LGT RAIN  42  38  85 SE7       29.90F FOG
GRAYLING       LGT RAIN  41  39  93 E12       29.92F
HARBOR SPRINGS CLOUDY    37  37  98 E10       29.93F WCI  30
HOUGHTON LAKE  LGT RAIN  40  38  93 SE10      29.91F FOG     WCI  33
MANISTEE       LGT RAIN  47  45  93 SE6       29.86F
OSCODA         LGT SNOW  37  36  94 E3        29.97F
PELLSTON       CLOUDY    37  34  89 E9        29.95F WCI  30
ROGERS CITY    CLOUDY    37  35  90 SE10      29.99F WCI  30
TRAVERSE CITY  CLOUDY    47  42  83 SE9       29.87F
$$
MIZ007>008-015-262000-
EASTERN UPPER MICHIGAN

CITY           SKY/WX    TMP DP  RH WIND       PRES   REMARKS
KINROSS        FOG       32  31  96 SE16      29.97F VSB 1   WCI  21
MACKINAC ISLAN CLOUDY    33  33 100 E17G25    29.96F FOG     WCI  22
NEWBERRY       CLOUDY    33  32  97 E8        29.94F FOG     WCI  26
S. S. MARIE    CLOUDY    34  31  88 E10       29.99F WCI  26
MUNISING         N/A     37  35  92 CALM      29.92F
$$
MIZ004>006-011>014-085-262000-
CENTRAL UPPER MICHIGAN

CITY           SKY/WX    TMP DP  RH WIND       PRES   REMARKS
MANISTIQUE     DRIZZLE   34  34 100 E9G16     29.93S WCI  26
ESCANABA       LGT RAIN  37  36  96 NE8       29.90F WCI  31
MENOMINEE      CLOUDY    37  35  92 NE13      29.90  WCI  29
SAWYER-GWINN   LGT RAIN  34  34 100 CALM      29.91F
$$
MIZ001>003-009>011-084-262000-
WESTERN UPPER MICHIGAN

CITY           SKY/WX    TMP DP  RH WIND       PRES   REMARKS
IRON MOUNTAIN  LGT RAIN  36  32  85 NE3       29.88F
HOUGHTON       CLOUDY    33  31  92 E6        29.92F FOG     WCI  28
COPPER HARBOR    N/A     35  33  92 S5        29.94F WCI  31
IRONWOOD       CLOUDY    38  35  89 NE5       29.91F WCI  34
$$

ABBREVIATIONS USED IN REMARKS
   TC - TEMPERATURE IN CELSIUS
  WCI - WIND CHILL INDEX
   HX - HEAT INDEX
  VSB - VISIBILITY




USA.gov is the U.S. government's official web portal to all federal, state and local government web resources and services.